Regional Weather Roundup
Issued by NWS Little Rock, AR

Home | Current Version | Previous Version | Text Only | Print | Product List | Glossary On
Versions: 1 2 3 4 5 6 7 8 9 10 11 12 13 14 15 16 17 18 19 20 21 22 23 24 25 26 27 28 29 30 31 32 33 34 35 36 37 38 39 40 41 42 43 44 45 46 47 48 49 50
000
ASUS44 KLZK 061105
RWRLZK

WEATHER ROUNDUP FOR ARKANSAS
NATIONAL WEATHER SERVICE LITTLE ROCK AR
500 AM CST FRI MAR 06 2015

NOTE: "FAIR" INDICATES FEW OR NO CLOUDS BELOW 12,000 FEET WITH NO
SIGNIFICANT WEATHER AND/OR OBSTRUCTIONS TO VISIBILITY.

ARZ001-003-010-029-061200-
NORTHWEST ARKANSAS

CITY           SKY/WX    TMP DP  RH WIND       PRES   REMARKS
FAYETTEVILLE   CLEAR     22  14  71 CALM      30.50R
FORT SMITH     CLEAR     23  19  85 CALM      30.56S
HARRISON       CLEAR     15  12  88 SE6       30.49R WCI   6
BENTONVILLE    CLEAR     23  12  63 S6        30.49R WCI  16
ROGERS         CLEAR     22  15  75 S9        30.49R WCI  12
SILOAM SPGS    CLEAR     23  12  63 S8        30.50S WCI  14
HIGHFILL       CLEAR     21  15  78 S5        30.48R WCI  15
$$

ARZ004-005-016-061200-
NORTH CENTRAL ARKANSAS

CITY           SKY/WX    TMP DP  RH WIND       PRES   REMARKS
BATESVILLE     CLEAR     12   9  85 CALM      30.58R
FLIPPIN        CLEAR     12   7  79 CALM      30.53R
MTN HOME       CLEAR     15  11  83 SE5       30.52R WCI   8
$$

ARZ040-041-061200-
WEST CENTRAL ARKANSAS

CITY           SKY/WX    TMP DP  RH WIND       PRES   REMARKS
MENA           CLEAR     23  19  86 CALM      30.54S
MOUNT IDA      CLEAR     19  15  84 CALM      30.54R
$$

ARZ009-017-025-026-028-061200-
NORTHEAST ARKANSAS

CITY           SKY/WX    TMP DP  RH WIND       PRES   REMARKS
CORNING        FAIR      14  10  85 CALM      30.61R
JONESBORO      PTCLDY     7   6  96 CALM      30.61R FOG
NEWPORT        CLEAR     14  13  96 N3        30.62R FOG
WALNUT RIDGE     N/A      9   3  78 CALM      30.60R VSB<1/4
BLYTHEVILLE    MOCLDY     5   2  87 NE3       30.61R
$$

ARZ022-023-033-042-044-061200-
CENTRAL ARKANSAS

CITY           SKY/WX    TMP DP  RH WIND       PRES   REMARKS
LITTLE ROCK    CLEAR     18  13  80 CALM      30.61R
N LITTLE ROCK    N/A     20  17  90 E2        30.61R
JACKSONVILLE   FAIR      14  11  89 CALM      30.59R
SEARCY         CLEAR     12  10  92 CALM      30.62R
HOT SPRINGS    CLEAR     19  16  88 NW3       30.58R
RUSSELLVILLE   CLEAR     20  17  88 CALM      30.57R
CLINTON        FAIR      14  10  85 CALM      30.61R
$$

ARZ036-061200-
EAST ARKANSAS

CITY           SKY/WX    TMP DP  RH WIND       PRES   REMARKS
WEST MEMPHIS   PTCLDY    13  10  88 CALM      30.59R
$$

ARZ050-053-066-070-073-061200-
SOUTHWEST ARKANSAS

CITY           SKY/WX    TMP DP  RH WIND       PRES   REMARKS
ARKADELPHIA    FAIR      22  22 100 CALM      30.61R
CAMDEN         CLEAR     18  16  93 CALM      30.61R FOG
TEXARKANA      CLEAR     22  22 100 CALM      30.58R
EL DORADO      CLEAR     20  17  88 CALM      30.59R
DE QUEEN       CLEAR     22  20  92 CALM      30.58R
$$

ARZ056-057-069-061200-
SOUTHEAST ARKANSAS

CITY           SKY/WX    TMP DP  RH WIND       PRES   REMARKS
PINE BLUFF     CLEAR     19  16  88 CALM      30.61R
STUTTGART      CLEAR     19  12  73 N5        30.60S WCI  13
MONTICELLO     CLEAR     20  16  84 N3        30.59R

$$





USA.gov is the U.S. government's official web portal to all federal, state and local government web resources and services.